CW8306 Weather Reports


time (UTC)temp
C
wind
direction
speed
KPH
gust
KPH
rain 1hr
cm
rain 24hr
cm
rain mn
cm
humidity
%
barometer
mb
20260502205544 18 191 0.0 1.6 0.00 0.00 0.00 40 1008.9
20260502205042 18 231 0.0 1.6 0.00 0.00 0.00 41 1008.5
20260502204538 18 356 1.6 3.2 0.00 0.00 0.00 41 1008.8
20260502204036 18 109 1.6 3.2 0.00 0.00 0.00 40 1008.7
20260502203533 18 284 0.0 3.2 0.00 0.00 0.00 42 1008.6
20260502203030 18 217 0.0 3.2 0.00 0.00 0.00 41 1008.9
20260502202526 18 220 1.6 1.6 0.00 0.00 0.00 41 1008.7
20260502202024 18 222 0.0 1.6 0.00 0.00 0.00 41 1009.2
20260502201520 18 239 0.0 1.6 0.00 0.00 0.00 43 1009.0
20260502201016 17 316 1.6 3.2 0.00 0.00 0.00 43 1009.0
20260502200513 17 237 1.6 3.2 0.00 0.00 0.00 43 1009.1
20260502200011 17 206 0.0 0.0 0.00 0.00 0.00 44 1009.3
20260502195508 17 209 0.0 1.6 0.00 0.00 0.00 45 1009.2
20260502195003 17 188 1.6 4.8 0.00 0.00 0.00 44 1009.2
20260502194501 17 197 0.0 1.6 0.00 0.00 0.00 44 1009.3
20260502193956 17 210 0.0 3.2 0.00 0.00 0.00 45 1009.4
20260502193454 17 181 1.6 3.2 0.00 0.00 0.00 43 1009.0
20260502192949 17 229 1.6 3.2 0.00 0.00 0.00 45 1009.3
20260502192446 17 176 1.6 3.2 0.00 0.00 0.00 47 1009.2
20260502191943 16 210 1.6 4.8 0.00 0.00 0.00 47 1009.5
20260502191441 16 54 1.6 4.8 0.00 0.00 0.00 48 1009.2
20260502190938 16 219 3.2 4.8 0.00 0.00 0.00 48 1009.6
20260502190436 16 167 3.2 3.2 0.00 0.00 0.00 48 1009.5
20260502185932 16 154 4.8 8.0 0.00 0.00 0.00 49 1009.5
20260502185427 16 148 3.2 3.2 0.00 0.00 0.00 48 1009.4
20260502184925 16 188 3.2 4.8 0.00 0.00 0.00 49 1009.4
20260502184420 16 156 4.8 9.7 0.00 0.00 0.00 50 1009.0
20260502183917 16 178 4.8 4.8 0.00 0.00 0.00 52 1009.5
20260502183413 16 185 1.6 4.8 0.00 0.00 0.00 50 1009.1
20260502182909 16 171 1.6 3.2 0.00 0.00 0.00 52 1009.5
20260502182404 15 118 0.0 4.8 0.00 0.00 0.00 55 1009.2
20260502181901 15 206 3.2 3.2 0.00 0.00 0.00 55 1009.4
20260502181359 15 85 3.2 3.2 0.00 0.00 0.00 58 1009.0
20260502180857 14 160 1.6 3.2 0.00 0.00 0.00 57 1009.5
20260502180354 14 171 3.2 3.2 0.00 0.00 0.00 56 1009.5
20260502170312 11 209 0.0 4.8 0.00 0.00 0.00 56 1009.7
20260502164300 12 237 1.6 3.2 0.00 0.00 0.00 47 1010.6
20260502163756 12 217 0.0 0.0 0.00 0.00 0.00 47 1010.4
20260502163252 12 220 0.0 4.8 0.00 0.00 0.00 46 1010.5
20260502162749 12 227 0.0 3.2 0.00 0.00 0.00 47 1010.4
20260502162246 12 251 1.6 1.6 0.00 0.00 0.00 46 1010.4
20260502161743 12 204 4.8 4.8 0.00 0.00 0.00 45 1009.9
20260502161240 12 192 1.6 1.6 0.00 0.00 0.00 46 1009.8
20260502160738 12 214 0.0 1.6 0.00 0.00 0.00 46 1010.2
20260502160237 12 208 1.6 3.2 0.00 0.00 0.00 48 1010.0
20260502152206 12 141 1.6 3.2 0.00 0.00 0.00 47 1010.4
20260502151704 12 213 1.6 4.8 0.00 0.00 0.00 47 1010.2
20260502151201 12 210 1.6 3.2 0.00 0.00 0.00 47 1010.4
20260502150658 12 208 0.0 4.8 0.00 0.00 0.00 48 1010.2
20260502150154 12 144 3.2 3.2 0.00 0.00 0.00 49 1010.1
20260502140118 8 190 3.2 4.8 0.00 0.00 0.00 53 1010.5
20260502130543 6 180 3.2 3.2 0.00 0.00 0.00 55 1010.8
20260502123526 5 208 8.0 9.7 0.00 0.00 0.00 56 1011.8
20260502123022 5 215 3.2 9.7 0.00 0.00 0.00 55 1011.7
20260502122519 5 190 4.8 8.0 0.00 0.00 0.00 55 1011.7
20260502122017 5 201 6.4 9.7 0.00 0.00 0.00 55 1011.7
20260502121514 5 214 8.0 14.5 0.00 0.00 0.00 55 1011.7
20260502121011 5 181 3.2 4.8 0.00 0.00 0.00 56 1011.8
20260502120507 5 232 4.8 4.8 0.00 0.00 0.00 56 1011.9
20260502115502 5 196 3.2 4.8 0.00 0.00 0.00 56 1012.0
20260502114958 5 224 3.2 8.0 0.00 0.00 0.00 55 1012.1
20260502114455 5 204 4.8 8.0 0.00 0.00 0.00 56 1012.3
20260502113952 5 171 3.2 8.0 0.00 0.00 0.00 57 1012.2
20260502113449 4 199 4.8 4.8 0.00 0.00 0.00 58 1012.3
20260502112948 3 189 1.6 3.2 0.00 0.00 0.00 59 1012.3
20260502112445 3 203 1.6 3.2 0.00 0.00 0.00 60 1012.4
20260502111942 3 202 4.8 4.8 0.00 0.00 0.00 61 1012.4
20260502111439 3 178 1.6 4.8 0.00 0.00 0.00 62 1012.7
20260502110937 3 194 1.6 3.2 0.00 0.00 0.00 63 1012.6
20260502110434 2 187 1.6 3.2 0.00 0.00 0.00 64 1012.8
20260502105931 2 184 1.6 1.6 0.00 0.00 0.00 64 1012.8
20260502105429 2 193 1.6 3.2 0.00 0.00 0.00 64 1012.9
20260502104927 3 182 1.6 3.2 0.00 0.00 0.00 63 1012.9
20260502104424 3 194 0.0 1.6 0.00 0.00 0.00 63 1013.3
20260502103921 3 186 0.0 1.6 0.00 0.00 0.00 63 1013.0
20260502103419 3 171 1.6 3.2 0.00 0.00 0.00 63 1013.1
20260502102915 3 188 0.0 3.2 0.00 0.00 0.00 62 1013.4
20260502102412 3 191 1.6 3.2 0.00 0.00 0.00 62 1013.3
20260502101909 3 192 1.6 1.6 0.00 0.00 0.00 62 1013.6
20260502101408 3 119 1.6 3.2 0.00 0.00 0.00 62 1013.3
20260502100905 3 151 1.6 1.6 0.00 0.00 0.00 62 1013.6
20260502100405 3 176 3.2 3.2 0.00 0.00 0.00 61 1013.6
20260502091338 5 120 6.4 8.0 0.00 0.00 0.00 55 1014.3
20260502090836 5 117 1.6 3.2 0.00 0.00 0.00 55 1014.4
20260502090332 5 220 1.6 4.8 0.00 0.00 0.00 53 1014.4
20260502071227 5 151 3.2 4.8 0.00 0.00 0.00 57 1016.3
20260502070726 5 165 1.6 3.2 0.00 0.00 0.00 57 1016.6
20260502070223 5 161 1.6 3.2 0.00 0.00 0.00 57 1016.5
20260502065721 5 182 1.6 3.2 0.00 0.00 0.00 57 1016.1
20260502065219 5 192 1.6 1.6 0.00 0.00 0.00 56 1016.4
20260502064717 5 161 3.2 4.8 0.00 0.00 0.00 56 1016.4
20260502064214 5 191 1.6 3.2 0.00 0.00 0.00 56 1016.6
20260502063712 5 211 3.2 3.2 0.00 0.00 0.00 55 1016.8
20260502063210 5 192 1.6 4.8 0.00 0.00 0.00 55 1016.6
20260502062706 5 186 1.6 3.2 0.00 0.00 0.00 55 1016.7
20260502062204 5 183 1.6 3.2 0.00 0.00 0.00 55 1016.6
20260502061702 5 185 3.2 4.8 0.00 0.00 0.00 55 1016.7
20260502061159 5 168 4.8 4.8 0.00 0.00 0.00 54 1016.7
20260502060654 5 160 3.2 3.2 0.00 0.00 0.00 54 1016.9
20260502060151 5 146 3.2 3.2 0.00 0.00 0.00 54 1016.9
20260502055649 5 178 1.6 3.2 0.00 0.00 0.00 53 1017.0
20260502055147 6 202 0.0 1.6 0.00 0.00 0.00 53 1016.9
20260502054646 6 191 1.6 4.8 0.00 0.00 0.00 52 1016.9
20260502054142 6 191 1.6 1.6 0.00 0.00 0.00 52 1016.9
20260502053640 6 191 1.6 1.6 0.00 0.00 0.00 51 1017.2
20260502053137 6 187 1.6 3.2 0.00 0.00 0.00 51 1017.4
20260502052635 6 195 1.6 1.6 0.00 0.00 0.00 51 1017.3
20260502052133 6 174 1.6 3.2 0.00 0.00 0.00 50 1017.4
20260502051631 6 192 0.0 1.6 0.00 0.00 0.00 50 1017.4
20260502051129 6 189 1.6 3.2 0.00 0.00 0.00 50 1017.4
20260502050625 6 192 1.6 1.6 0.00 0.00 0.00 49 1017.5
20260502050121 6 202 1.6 1.6 0.00 0.00 0.00 49 1017.6
20260502045618 6 184 0.0 3.2 0.00 0.00 0.00 48 1017.4
20260502045115 6 212 0.0 1.6 0.00 0.00 0.00 48 1017.7
20260502044612 6 206 0.0 1.6 0.00 0.00 0.00 48 1017.6
20260502044108 7 174 1.6 1.6 0.00 0.00 0.00 47 1017.6
20260502043606 7 171 1.6 3.2 0.00 0.00 0.00 47 1017.7
20260502043102 7 203 0.0 3.2 0.00 0.00 0.00 46 1017.8
20260502042557 7 201 0.0 4.8 0.00 0.00 0.00 46 1017.8
20260502042055 7 188 0.0 3.2 0.00 0.00 0.00 46 1017.8
20260502041552 7 186 1.6 3.2 0.00 0.00 0.00 45 1018.0
20260502041049 7 168 1.6 4.8 0.00 0.00 0.00 45 1017.9
20260502040545 7 186 1.6 3.2 0.00 0.00 0.00 45 1017.7
20260502040043 7 184 1.6 1.6 0.00 0.00 0.00 45 1017.8
20260502035538 7 189 1.6 3.2 0.00 0.00 0.00 44 1017.8
20260502035036 8 192 1.6 1.6 0.00 0.00 0.00 44 1017.8
20260502034535 8 183 1.6 3.2 0.00 0.00 0.00 43 1017.8
20260502034032 8 191 0.0 1.6 0.00 0.00 0.00 43 1017.6
20260502033530 8 196 0.0 1.6 0.00 0.00 0.00 43 1018.0
20260502033027 8 206 0.0 3.2 0.00 0.00 0.00 43 1017.7
20260502032523 8 195 0.0 3.2 0.00 0.00 0.00 43 1017.9
20260502032020 8 169 4.8 4.8 0.00 0.00 0.00 42 1017.9
20260502031518 9 197 1.6 1.6 0.00 0.00 0.00 42 1017.8
20260502031016 9 197 3.2 3.2 0.00 0.00 0.00 41 1017.8
20260502030514 9 172 0.0 3.2 0.00 0.00 0.00 42 1017.6
20260502030012 9 166 1.6 3.2 0.00 0.00 0.00 42 1017.7
20260502025509 9 156 3.2 4.8 0.00 0.00 0.00 42 1017.8
20260502025007 10 215 1.6 3.2 0.00 0.00 0.00 42 1017.8
20260502024504 10 182 0.0 3.2 0.00 0.00 0.00 41 1017.9
20260502024003 10 180 4.8 8.0 0.00 0.00 0.00 41 1017.6
20260502023459 10 191 0.0 1.6 0.00 0.00 0.00 41 1017.8
20260502022957 10 186 0.0 1.6 0.00 0.00 0.00 42 1017.7
20260502022453 10 190 1.6 3.2 0.00 0.00 0.00 41 1017.8
20260502021950 10 168 1.6 3.2 0.00 0.00 0.00 41 1017.8
20260502021448 10 167 1.6 1.6 0.00 0.00 0.00 41 1017.6
20260502020944 10 162 1.6 1.6 0.00 0.00 0.00 41 1017.7
20260502020443 10 173 1.6 3.2 0.00 0.00 0.00 40 1017.8
20260502015939 11 171 1.6 1.6 0.00 0.00 0.00 40 1017.8
20260502015437 11 183 0.0 1.6 0.00 0.00 0.00 40 1017.7
20260502014933 11 133 0.0 3.2 0.00 0.00 0.00 39 1017.7
20260502014430 11 188 0.0 0.0 0.00 0.00 0.00 39 1017.7
20260502013926 11 191 0.0 3.2 0.00 0.00 0.00 39 1017.7
20260502013422 11 194 1.6 3.2 0.00 0.00 0.00 38 1017.9
20260502012919 11 183 1.6 4.8 0.00 0.00 0.00 38 1017.8
20260502012417 11 154 1.6 3.2 0.00 0.00 0.00 38 1018.0
20260502011914 12 195 1.6 1.6 0.00 0.00 0.00 37 1018.0
20260502011410 12 194 1.6 1.6 0.00 0.00 0.00 37 1017.9
20260502010907 12 177 0.0 3.2 0.00 0.00 0.00 37 1017.9
20260502010404 12 138 0.0 3.2 0.00 0.00 0.00 37 1018.0
20260502005900 12 171 0.0 3.2 0.00 0.00 0.00 37 1018.0
20260502005358 12 120 1.6 3.2 0.00 0.00 0.00 37 1018.1
20260502004856 12 210 0.0 3.2 0.00 0.00 0.00 36 1018.1
20260502004351 12 212 1.6 1.6 0.00 0.00 0.00 36 1018.2
20260502003849 12 187 0.0 1.6 0.00 0.00 0.00 36 1018.3
20260502003346 13 205 0.0 0.0 0.00 0.00 0.00 35 1018.2
20260502002842 13 210 0.0 0.0 0.00 0.00 0.00 34 1018.3
20260502002340 13 201 0.0 1.6 0.00 0.00 0.00 33 1018.3
20260502001837 13 215 0.0 1.6 0.00 0.00 0.00 34 1018.6
20260502001335 13 217 1.6 3.2 0.00 0.00 0.00 33 1018.3
20260502000832 13 197 0.0 0.0 0.00 0.00 0.00 33 1018.5
20260502000332 13 218 0.0 0.0 0.00 0.00 0.00 32 1018.5
20260501235826 15 315 1.6 4.8 0.00 0.00 0.00 32 1018.6
20260501235322 15 208 0.0 0.0 0.00 0.00 0.00 31 1018.7
20260501234817 15 241 0.0 1.6 0.00 0.00 0.00 32 1018.6
20260501234315 15 193 0.0 3.2 0.00 0.00 0.00 31 1018.4
20260501233813 15 231 1.6 3.2 0.00 0.00 0.00 31 1018.7
20260501233310 15 166 0.0 1.6 0.00 0.00 0.00 32 1018.8
20260501232805 15 217 0.0 0.0 0.00 0.00 0.00 31 1018.8
20260501232305 15 61 1.6 1.6 0.00 0.00 0.00 31 1018.8
20260501231800 14 198 0.0 3.2 0.00 0.00 0.00 32 1018.9
20260501231258 15 205 0.0 1.6 0.00 0.00 0.00 33 1019.0
20260501230756 15 210 0.0 0.0 0.00 0.00 0.00 32 1018.9
20260501230255 15 177 3.2 3.2 0.00 0.00 0.00 33 1019.1
20260501225752 15 181 3.2 3.2 0.00 0.00 0.00 32 1019.1
20260501225250 14 52 3.2 4.8 0.00 0.00 0.00 31 1019.2
20260501224745 14 65 1.6 3.2 0.00 0.00 0.00 33 1019.3
20260501224243 14 330 3.2 4.8 0.00 0.00 0.00 32 1019.2
20260501223739 15 303 4.8 8.0 0.00 0.00 0.00 31 1019.2
20260501223235 15 232 4.8 4.8 0.00 0.00 0.00 31 1019.1
20260501222731 15 347 1.6 4.8 0.00 0.00 0.00 32 1019.3
20260501222229 15 145 0.0 1.6 0.00 0.00 0.00 31 1019.1
20260501221726 14 274 1.6 1.6 0.00 0.00 0.00 32 1019.3
20260501221223 14 260 3.2 3.2 0.00 0.00 0.00 32 1019.5
20260501220720 14 6 3.2 3.2 0.00 0.00 0.00 32 1019.5
20260501220218 14 203 1.6 3.2 0.00 0.00 0.00 32 1019.3
20260501215715 14 297 0.0 3.2 0.00 0.00 0.00 32 1019.4
20260501215209 13 312 1.6 4.8 0.00 0.00 0.00 34 1019.6
20260501214704 13 198 1.6 1.6 0.00 0.00 0.00 33 1019.8
20260501214201 13 229 0.0 3.2 0.00 0.00 0.00 34 1019.7
20260501213657 13 50 1.6 1.6 0.00 0.00 0.00 35 1019.7
20260501213153 13 156 0.0 4.8 0.00 0.00 0.00 34 1019.7
20260501212650 13 173 4.8 4.8 0.00 0.00 0.00 36 1019.9
20260501212147 12 117 1.6 4.8 0.00 0.00 0.00 35 1019.9
20260501211643 13 39 3.2 3.2 0.00 0.00 0.00 35 1020.0
20260501211141 12 201 0.0 1.6 0.00 0.00 0.00 36 1020.1
20260501210637 13 349 3.2 4.8 0.00 0.00 0.00 35 1020.0
20260501210135 13 203 0.0 1.6 0.00 0.00 0.00 36 1020.2